owner,sensor,date,latitude,longitude,vertical_datum,wind_speed,wind_to_direction,wind_speed_of_gust,qcFlag 
WAVCIS,ioos:station:WAVCIS:CSI03:3,2016-01-01T00:00:00Z,29.4412,-92.0613,10.0,10.0,36.0,,'11111222,11111222,99999999' 
WAVCIS,ioos:station:WAVCIS:CSI03:3,2016-01-01T01:00:00Z,29.4412,-92.0613,10.0,9.49,36.0,,'11111222,11111222,99999999' 
WAVCIS,ioos:station:WAVCIS:CSI03:3,2016-01-01T02:00:00Z,29.4412,-92.0613,10.0,8.59,33.0,,'11111222,11111222,99999999' 
WAVCIS,ioos:station:WAVCIS:CSI03:3,2016-01-01T03:00:00Z,29.4412,-92.0613,10.0,8.92,30.0,,'11111222,11111222,99999999' 
WAVCIS,ioos:station:WAVCIS:CSI03:3,2016-01-01T04:00:00Z,29.4412,-92.0613,10.0,11.37,36.0,,'11111222,11111222,99999999' 
WAVCIS,ioos:station:WAVCIS:CSI03:3,2016-01-01T05:00:00Z,29.4412,-92.0613,10.0,8.81,33.0,,'11111222,11111222,99999999' 
WAVCIS,ioos:station:WAVCIS:CSI03:3,2016-01-01T06:00:00Z,29.4412,-92.0613,10.0,8.46,30.0,,'11111222,11111222,99999999' 
WAVCIS,ioos:station:WAVCIS:CSI03:3,2016-01-01T07:00:00Z,29.4412,-92.0613,10.0,9.4,350.0,,'11111222,11111222,99999999' 
WAVCIS,ioos:station:WAVCIS:CSI03:3,2016-01-01T08:00:00Z,29.4412,-92.0613,10.0,9.94,16.0,,'11111222,11111222,99999999' 
WAVCIS,ioos:station:WAVCIS:CSI03:3,2016-01-01T09:00:00Z,29.4412,-92.0613,10.0,9.07,12.0,,'11111222,11111222,99999999' 
WAVCIS,ioos:station:WAVCIS:CSI03:3,2016-01-01T10:00:00Z,29.4412,-92.0613,10.0,8.94,16.0,,'11111222,11111222,99999999' 
WAVCIS,ioos:station:WAVCIS:CSI03:3,2016-01-01T11:00:00Z,29.4412,-92.0613,10.0,10.29,38.0,,'11111222,11111222,99999999' 
WAVCIS,ioos:station:WAVCIS:CSI03:3,2016-01-01T12:00:00Z,29.4412,-92.0613,10.0,8.18,26.0,,'11111222,11111222,99999999' 
WAVCIS,ioos:station:WAVCIS:CSI03:3,2016-01-01T13:00:00Z,29.4412,-92.0613,10.0,8.34,23.0,,'11111222,11111222,99999999' 
WAVCIS,ioos:station:WAVCIS:CSI03:3,2016-01-01T14:00:00Z,29.4412,-92.0613,10.0,8.35,15.0,,'11111222,11111222,99999999' 
WAVCIS,ioos:station:WAVCIS:CSI03:3,2016-01-01T15:00:00Z,29.4412,-92.0613,10.0,8.83,13.0,,'11111222,11111222,99999999' 
WAVCIS,ioos:station:WAVCIS:CSI03:3,2016-01-01T16:00:00Z,29.4412,-92.0613,10.0,9.18,9.0,,'11111222,11111222,99999999' 
WAVCIS,ioos:station:WAVCIS:CSI03:3,2016-01-01T17:00:00Z,29.4412,-92.0613,10.0,8.89,18.0,,'11111222,11111222,99999999' 
WAVCIS,ioos:station:WAVCIS:CSI03:3,2016-01-01T18:00:00Z,29.4412,-92.0613,10.0,8.58,12.0,,'11111222,11111222,99999999' 
WAVCIS,ioos:station:WAVCIS:CSI03:3,2016-01-01T19:00:00Z,29.4412,-92.0613,10.0,8.29,15.0,,'11111222,11111222,99999999' 
WAVCIS,ioos:station:WAVCIS:CSI03:3,2016-01-01T20:00:00Z,29.4412,-92.0613,10.0,7.82,21.0,,'11111222,11111222,99999999' 
WAVCIS,ioos:station:WAVCIS:CSI03:3,2016-01-01T21:00:00Z,29.4412,-92.0613,10.0,7.36,352.0,,'11111222,11111222,99999999' 
WAVCIS,ioos:station:WAVCIS:CSI03:3,2016-01-01T22:00:00Z,29.4412,-92.0613,10.0,8.29,356.0,,'11111222,11111222,99999999' 
WAVCIS,ioos:station:WAVCIS:CSI03:3,2016-01-01T23:00:00Z,29.4412,-92.0613,10.0,9.17,6.0,,'11111222,11111222,99999999' 
WAVCIS,ioos:station:WAVCIS:CSI03:3,2016-01-02T00:00:00Z,29.4412,-92.0613,10.0,8.87,4.0,,'11111222,11111222,99999999' 
WAVCIS,ioos:station:WAVCIS:CSI03:3,2016-01-02T01:00:00Z,29.4412,-92.0613,10.0,10.01,15.0,,'11111222,11111222,99999999' 
WAVCIS,ioos:station:WAVCIS:CSI03:3,2016-01-02T02:00:00Z,29.4412,-92.0613,10.0,9.25,12.0,,'11111222,11111222,99999999' 
WAVCIS,ioos:station:WAVCIS:CSI03:3,2016-01-02T03:00:00Z,29.4412,-92.0613,10.0,7.9,16.0,,'11111222,11111222,99999999' 
WAVCIS,ioos:station:WAVCIS:CSI03:3,2016-01-02T04:00:00Z,29.4412,-92.0613,10.0,7.72,15.0,,'11111222,11111222,99999999' 
WAVCIS,ioos:station:WAVCIS:CSI03:3,2016-01-02T05:00:00Z,29.4412,-92.0613,10.0,6.941,18.0,,'11111222,11111222,99999999' 
WAVCIS,ioos:station:WAVCIS:CSI03:3,2016-01-02T06:00:00Z,29.4412,-92.0613,10.0,7.56,13.0,,'11111222,11111222,99999999' 
WAVCIS,ioos:station:WAVCIS:CSI03:3,2016-01-02T07:00:00Z,29.4412,-92.0613,10.0,6.967,27.0,,'11111222,11111222,99999999' 
WAVCIS,ioos:station:WAVCIS:CSI03:3,2016-01-02T08:00:00Z,29.4412,-92.0613,10.0,6.96,22.0,,'11111222,11111222,99999999' 
WAVCIS,ioos:station:WAVCIS:CSI03:3,2016-01-02T09:00:00Z,29.4412,-92.0613,10.0,7.02,22.0,,'11111222,11111222,99999999' 
WAVCIS,ioos:station:WAVCIS:CSI03:3,2016-01-02T10:00:00Z,29.4412,-92.0613,10.0,7.06,26.0,,'11111222,11111222,99999999' 
WAVCIS,ioos:station:WAVCIS:CSI03:3,2016-01-02T11:00:00Z,29.4412,-92.0613,10.0,8.19,30.0,,'11111222,11111222,99999999' 
WAVCIS,ioos:station:WAVCIS:CSI03:3,2016-01-02T12:00:00Z,29.4412,-92.0613,10.0,9.21,35.0,,'11111222,11111222,99999999' 
WAVCIS,ioos:station:WAVCIS:CSI03:3,2016-01-02T13:00:00Z,29.4412,-92.0613,10.0,8.16,35.0,,'11111222,11111222,99999999' 
WAVCIS,ioos:station:WAVCIS:CSI03:3,2016-01-02T14:00:00Z,29.4412,-92.0613,10.0,8.42,35.0,,'11111222,11111222,99999999' 
WAVCIS,ioos:station:WAVCIS:CSI03:3,2016-01-02T15:00:00Z,29.4412,-92.0613,10.0,7.77,29.0,,'11111222,11111222,99999999' 
WAVCIS,ioos:station:WAVCIS:CSI03:3,2016-01-02T16:00:00Z,29.4412,-92.0613,10.0,8.44,38.0,,'11111222,11111222,99999999' 
WAVCIS,ioos:station:WAVCIS:CSI03:3,2016-01-02T17:00:00Z,29.4412,-92.0613,10.0,8.78,39.0,,'11111222,11111222,99999999' 
WAVCIS,ioos:station:WAVCIS:CSI03:3,2016-01-02T18:00:00Z,29.4412,-92.0613,10.0,7.97,37.0,,'11111222,11111222,99999999' 
WAVCIS,ioos:station:WAVCIS:CSI03:3,2016-01-02T19:00:00Z,29.4412,-92.0613,10.0,6.3,28.0,,'11111222,11111222,99999999' 
WAVCIS,ioos:station:WAVCIS:CSI03:3,2016-01-02T20:00:00Z,29.4412,-92.0613,10.0,5.787,18.0,,'11111222,11111222,99999999' 
WAVCIS,ioos:station:WAVCIS:CSI03:3,2016-01-02T21:00:00Z,29.4412,-92.0613,10.0,4.94,2.0,,'11111222,11111222,99999999' 
WAVCIS,ioos:station:WAVCIS:CSI03:3,2016-01-02T22:00:00Z,29.4412,-92.0613,10.0,5.105,5.0,,'11111222,11111222,99999999' 
WAVCIS,ioos:station:WAVCIS:CSI03:3,2016-01-02T23:00:00Z,29.4412,-92.0613,10.0,5.626,9.0,,'11111222,11111222,99999999' 
WAVCIS,ioos:station:WAVCIS:CSI03:3,2016-01-03T00:00:00Z,29.4412,-92.0613,10.0,4.99,26.0,,'11111222,11111222,99999999' 
WAVCIS,ioos:station:WAVCIS:CSI03:3,2016-01-03T01:00:00Z,29.4412,-92.0613,10.0,5.006,20.0,,'11111222,11111222,99999999' 
WAVCIS,ioos:station:WAVCIS:CSI03:3,2016-01-03T02:00:00Z,29.4412,-92.0613,10.0,4.911,20.0,,'11111222,11111222,99999999' 
WAVCIS,ioos:station:WAVCIS:CSI03:3,2016-01-03T03:00:00Z,29.4412,-92.0613,10.0,4.99,10.0,,'11111222,11111222,99999999' 
WAVCIS,ioos:station:WAVCIS:CSI03:3,2016-01-03T04:00:00Z,29.4412,-92.0613,10.0,4.531,11.0,,'11111222,11111222,99999999' 
WAVCIS,ioos:station:WAVCIS:CSI03:3,2016-01-03T05:00:00Z,29.4412,-92.0613,10.0,4.797,18.0,,'11111222,11111222,99999999' 
WAVCIS,ioos:station:WAVCIS:CSI03:3,2016-01-03T06:00:00Z,29.4412,-92.0613,10.0,5.618,29.0,,'11111222,11111222,99999999' 
WAVCIS,ioos:station:WAVCIS:CSI03:3,2016-01-03T07:00:00Z,29.4412,-92.0613,10.0,5.155,24.0,,'11111222,11111222,99999999' 
WAVCIS,ioos:station:WAVCIS:CSI03:3,2016-01-03T08:00:00Z,29.4412,-92.0613,10.0,5.544,32.0,,'11111222,11111222,99999999' 
WAVCIS,ioos:station:WAVCIS:CSI03:3,2016-01-03T09:00:00Z,29.4412,-92.0613,10.0,4.922,17.0,,'11111222,11111222,99999999' 
WAVCIS,ioos:station:WAVCIS:CSI03:3,2016-01-03T10:00:00Z,29.4412,-92.0613,10.0,4.737,12.0,,'11111222,11111222,99999999' 
WAVCIS,ioos:station:WAVCIS:CSI03:3,2016-01-03T11:00:00Z,29.4412,-92.0613,10.0,4.349,358.0,,'11111222,11111222,99999999' 
WAVCIS,ioos:station:WAVCIS:CSI03:3,2016-01-03T12:00:00Z,29.4412,-92.0613,10.0,3.581,356.0,,'11111222,11111222,99999999' 
WAVCIS,ioos:station:WAVCIS:CSI03:3,2016-01-03T13:00:00Z,29.4412,-92.0613,10.0,4.544,355.0,,'11111222,11111222,99999999' 
WAVCIS,ioos:station:WAVCIS:CSI03:3,2016-01-03T14:00:00Z,29.4412,-92.0613,10.0,5.382,334.0,,'11111222,11111222,99999999' 
WAVCIS,ioos:station:WAVCIS:CSI03:3,2016-01-03T15:00:00Z,29.4412,-92.0613,10.0,4.965,345.0,,'11111222,11111222,99999999' 
WAVCIS,ioos:station:WAVCIS:CSI03:3,2016-01-03T16:00:00Z,29.4412,-92.0613,10.0,5.363,0.0,,'11111222,11111222,99999999' 
WAVCIS,ioos:station:WAVCIS:CSI03:3,2016-01-03T17:00:00Z,29.4412,-92.0613,10.0,4.473,3.0,,'11111222,11111222,99999999' 
WAVCIS,ioos:station:WAVCIS:CSI03:3,2016-01-03T18:00:00Z,29.4412,-92.0613,10.0,4.374,358.0,,'11111222,11111222,99999999' 
WAVCIS,ioos:station:WAVCIS:CSI03:3,2016-01-03T19:00:00Z,29.4412,-92.0613,10.0,4.409,6.0,,'11111222,11111222,99999999' 
WAVCIS,ioos:station:WAVCIS:CSI03:3,2016-01-03T20:00:00Z,29.4412,-92.0613,10.0,3.686,355.0,,'11111222,11111222,99999999' 
WAVCIS,ioos:station:WAVCIS:CSI03:3,2016-01-03T21:00:00Z,29.4412,-92.0613,10.0,2.596,8.0,,'11111222,11111222,99999999' 
WAVCIS,ioos:station:WAVCIS:CSI03:3,2016-01-03T22:00:00Z,29.4412,-92.0613,10.0,3.63,350.0,,'11111222,11111222,99999999' 
WAVCIS,ioos:station:WAVCIS:CSI03:3,2016-01-03T23:00:00Z,29.4412,-92.0613,10.0,4.396,343.0,,'11111222,11111222,99999999' 
WAVCIS,ioos:station:WAVCIS:CSI03:3,2016-01-04T00:00:00Z,29.4412,-92.0613,10.0,3.852,348.0,,'11111222,11111222,99999999' 
WAVCIS,ioos:station:WAVCIS:CSI03:3,2016-01-04T01:00:00Z,29.4412,-92.0613,10.0,3.504,347.0,,'11111222,11111222,99999999' 
WAVCIS,ioos:station:WAVCIS:CSI03:3,2016-01-04T02:00:00Z,29.4412,-92.0613,10.0,3.19,322.0,,'11111222,11111222,99999999' 
WAVCIS,ioos:station:WAVCIS:CSI03:3,2016-01-04T03:00:00Z,29.4412,-92.0613,10.0,2.935,319.0,,'11111222,11111222,99999999' 
WAVCIS,ioos:station:WAVCIS:CSI03:3,2016-01-04T04:00:00Z,29.4412,-92.0613,10.0,4.306,316.0,,'11111222,11111222,99999999' 
WAVCIS,ioos:station:WAVCIS:CSI03:3,2016-01-04T05:00:00Z,29.4412,-92.0613,10.0,4.629,319.0,,'11111222,11111222,99999999' 
WAVCIS,ioos:station:WAVCIS:CSI03:3,2016-01-04T06:00:00Z,29.4412,-92.0613,10.0,6.039,320.0,,'11111222,11111222,99999999' 
WAVCIS,ioos:station:WAVCIS:CSI03:3,2016-01-04T07:00:00Z,29.4412,-92.0613,10.0,6.169,339.0,,'11111222,11111222,99999999' 
WAVCIS,ioos:station:WAVCIS:CSI03:3,2016-01-04T08:00:00Z,29.4412,-92.0613,10.0,6.024,340.0,,'11111222,11111222,99999999' 
WAVCIS,ioos:station:WAVCIS:CSI03:3,2016-01-04T09:00:00Z,29.4412,-92.0613,10.0,5.901,359.0,,'11111222,11111222,99999999' 
WAVCIS,ioos:station:WAVCIS:CSI03:3,2016-01-04T10:00:00Z,29.4412,-92.0613,10.0,6.402,11.0,,'11111222,11111222,99999999' 
WAVCIS,ioos:station:WAVCIS:CSI03:3,2016-01-04T11:00:00Z,29.4412,-92.0613,10.0,5.504,29.0,,'11111222,11111222,99999999' 
WAVCIS,ioos:station:WAVCIS:CSI03:3,2016-01-04T12:00:00Z,29.4412,-92.0613,10.0,5.298,32.0,,'11111222,11111222,99999999' 
WAVCIS,ioos:station:WAVCIS:CSI03:3,2016-01-04T13:00:00Z,29.4412,-92.0613,10.0,5.438,30.0,,'11111222,11111222,99999999' 
WAVCIS,ioos:station:WAVCIS:CSI03:3,2016-01-04T14:00:00Z,29.4412,-92.0613,10.0,4.527,24.0,,'11111222,11111222,99999999' 
WAVCIS,ioos:station:WAVCIS:CSI03:3,2016-01-04T15:00:00Z,29.4412,-92.0613,10.0,6.501,33.0,,'11111222,11111222,99999999' 
WAVCIS,ioos:station:WAVCIS:CSI03:3,2016-01-04T16:00:00Z,29.4412,-92.0613,10.0,6.841,35.0,,'11111222,11111222,99999999' 
WAVCIS,ioos:station:WAVCIS:CSI03:3,2016-01-04T17:00:00Z,29.4412,-92.0613,10.0,6.978,37.0,,'11111222,11111222,99999999' 
WAVCIS,ioos:station:WAVCIS:CSI03:3,2016-01-04T18:00:00Z,29.4412,-92.0613,10.0,5.749,41.0,,'11111222,11111222,99999999' 
WAVCIS,ioos:station:WAVCIS:CSI03:3,2016-01-04T19:00:00Z,29.4412,-92.0613,10.0,4.583,357.0,,'11111222,11111222,99999999' 
WAVCIS,ioos:station:WAVCIS:CSI03:3,2016-01-04T20:00:00Z,29.4412,-92.0613,10.0,5.138,0.0,,'11111222,11111222,99999999' 
WAVCIS,ioos:station:WAVCIS:CSI03:3,2016-01-04T21:00:00Z,29.4412,-92.0613,10.0,4.615,10.0,,'11111222,11111222,99999999' 
WAVCIS,ioos:station:WAVCIS:CSI03:3,2016-01-04T22:00:00Z,29.4412,-92.0613,10.0,4.562,14.0,,'11111222,11111222,99999999' 
WAVCIS,ioos:station:WAVCIS:CSI03:3,2016-01-04T23:00:00Z,29.4412,-92.0613,10.0,6.322,2.0,,'11111222,11111222,99999999' 
WAVCIS,ioos:station:WAVCIS:CSI03:3,2016-01-05T00:00:00Z,29.4412,-92.0613,10.0,6.335,7.0,,'11111222,11111222,99999999' 
WAVCIS,ioos:station:WAVCIS:CSI03:3,2016-01-05T01:00:00Z,29.4412,-92.0613,10.0,7.77,11.0,,'11111222,11111222,99999999' 
WAVCIS,ioos:station:WAVCIS:CSI03:3,2016-01-05T02:00:00Z,29.4412,-92.0613,10.0,7.98,25.0,,'11111222,11111222,99999999' 
WAVCIS,ioos:station:WAVCIS:CSI03:3,2016-01-05T03:00:00Z,29.4412,-92.0613,10.0,6.915,26.0,,'11111222,11111222,99999999' 
WAVCIS,ioos:station:WAVCIS:CSI03:3,2016-01-05T04:00:00Z,29.4412,-92.0613,10.0,8.31,31.0,,'11111222,11111222,99999999' 
WAVCIS,ioos:station:WAVCIS:CSI03:3,2016-01-05T05:00:00Z,29.4412,-92.0613,10.0,9.84,35.0,,'11111222,11111222,99999999' 
WAVCIS,ioos:station:WAVCIS:CSI03:3,2016-01-05T06:00:00Z,29.4412,-92.0613,10.0,9.76,37.0,,'11111222,11111222,99999999' 
WAVCIS,ioos:station:WAVCIS:CSI03:3,2016-01-05T07:00:00Z,29.4412,-92.0613,10.0,10.22,48.0,,'11111222,11111222,99999999' 
WAVCIS,ioos:station:WAVCIS:CSI03:3,2016-01-05T08:00:00Z,29.4412,-92.0613,10.0,9.98,52.0,,'11111222,11111222,99999999' 
WAVCIS,ioos:station:WAVCIS:CSI03:3,2016-01-05T09:00:00Z,29.4412,-92.0613,10.0,9.4,48.0,,'11111222,11111222,99999999' 
WAVCIS,ioos:station:WAVCIS:CSI03:3,2016-01-05T10:00:00Z,29.4412,-92.0613,10.0,8.5,53.0,,'11111222,11111222,99999999' 
WAVCIS,ioos:station:WAVCIS:CSI03:3,2016-01-05T11:00:00Z,29.4412,-92.0613,10.0,9.62,57.0,,'11111222,11111222,99999999' 
WAVCIS,ioos:station:WAVCIS:CSI03:3,2016-01-05T12:00:00Z,29.4412,-92.0613,10.0,8.68,53.0,,'11111222,11111222,99999999' 
WAVCIS,ioos:station:WAVCIS:CSI03:3,2016-01-05T13:00:00Z,29.4412,-92.0613,10.0,7.99,54.0,,'11111222,11111222,99999999' 
WAVCIS,ioos:station:WAVCIS:CSI03:3,2016-01-05T14:00:00Z,29.4412,-92.0613,10.0,6.356,59.0,,'11111222,11111222,99999999' 
WAVCIS,ioos:station:WAVCIS:CSI03:3,2016-01-05T15:00:00Z,29.4412,-92.0613,10.0,5.19,53.0,,'11111222,11111222,99999999' 
WAVCIS,ioos:station:WAVCIS:CSI03:3,2016-01-05T16:00:00Z,29.4412,-92.0613,10.0,3.376,73.0,,'11111222,11111222,99999999' 
WAVCIS,ioos:station:WAVCIS:CSI03:3,2016-01-05T17:00:00Z,29.4412,-92.0613,10.0,3.428,61.0,,'11111222,11111222,99999999' 
WAVCIS,ioos:station:WAVCIS:CSI03:3,2016-01-05T18:00:00Z,29.4412,-92.0613,10.0,2.269,34.0,,'11111222,11111222,99999999' 
WAVCIS,ioos:station:WAVCIS:CSI03:3,2016-01-05T19:00:00Z,29.4412,-92.0613,10.0,1.672,33.0,,'11111222,11111222,99999999' 
WAVCIS,ioos:station:WAVCIS:CSI03:3,2016-01-05T20:00:00Z,29.4412,-92.0613,10.0,1.649,12.0,,'11111222,11111222,99999999' 
WAVCIS,ioos:station:WAVCIS:CSI03:3,2016-01-05T21:00:00Z,29.4412,-92.0613,10.0,1.666,41.0,,'11111222,11111222,99999999' 
WAVCIS,ioos:station:WAVCIS:CSI03:3,2016-01-05T22:00:00Z,29.4412,-92.0613,10.0,0.692,75.0,,'11111222,11111222,99999999' 
WAVCIS,ioos:station:WAVCIS:CSI03:3,2016-01-05T23:00:00Z,29.4412,-92.0613,10.0,4.29,61.0,,'11111222,11111222,99999999' 
WAVCIS,ioos:station:WAVCIS:CSI03:3,2016-01-06T00:00:00Z,29.4412,-92.0613,10.0,5.619,53.0,,'11111222,11111222,99999999' 
WAVCIS,ioos:station:WAVCIS:CSI03:3,2016-01-06T01:00:00Z,29.4412,-92.0613,10.0,6.832,50.0,,'11111222,11111222,99999999' 
WAVCIS,ioos:station:WAVCIS:CSI03:3,2016-01-06T02:00:00Z,29.4412,-92.0613,10.0,7.73,53.0,,'11111222,11111222,99999999' 
WAVCIS,ioos:station:WAVCIS:CSI03:3,2016-01-06T03:00:00Z,29.4412,-92.0613,10.0,7.84,57.0,,'11111222,11111222,99999999' 
WAVCIS,ioos:station:WAVCIS:CSI03:3,2016-01-06T04:00:00Z,29.4412,-92.0613,10.0,6.646,68.0,,'11111222,11111222,99999999' 
WAVCIS,ioos:station:WAVCIS:CSI03:3,2016-01-06T05:00:00Z,29.4412,-92.0613,10.0,6.397,80.0,,'11111222,11111222,99999999' 
WAVCIS,ioos:station:WAVCIS:CSI03:3,2016-01-06T06:00:00Z,29.4412,-92.0613,10.0,7.73,70.0,,'11111222,11111222,99999999' 
WAVCIS,ioos:station:WAVCIS:CSI03:3,2016-01-06T07:00:00Z,29.4412,-92.0613,10.0,7.87,80.0,,'11111222,11111222,99999999' 
WAVCIS,ioos:station:WAVCIS:CSI03:3,2016-01-06T08:00:00Z,29.4412,-92.0613,10.0,8.82,84.0,,'11111222,11111222,99999999' 
WAVCIS,ioos:station:WAVCIS:CSI03:3,2016-01-06T09:00:00Z,29.4412,-92.0613,10.0,7.51,79.0,,'11111222,11111222,99999999' 
WAVCIS,ioos:station:WAVCIS:CSI03:3,2016-01-06T10:00:00Z,29.4412,-92.0613,10.0,9.53,84.0,,'11111222,11111222,99999999' 
WAVCIS,ioos:station:WAVCIS:CSI03:3,2016-01-06T11:00:00Z,29.4412,-92.0613,10.0,11.01,87.0,,'11111222,11111222,99999999' 
WAVCIS,ioos:station:WAVCIS:CSI03:3,2016-01-06T12:00:00Z,29.4412,-92.0613,10.0,11.53,91.0,,'11111222,11111222,99999999' 
WAVCIS,ioos:station:WAVCIS:CSI03:3,2016-01-06T13:00:00Z,29.4412,-92.0613,10.0,10.86,92.0,,'11111222,11111222,99999999' 
WAVCIS,ioos:station:WAVCIS:CSI03:3,2016-01-06T14:00:00Z,29.4412,-92.0613,10.0,9.78,90.0,,'11111222,11111222,99999999' 
WAVCIS,ioos:station:WAVCIS:CSI03:3,2016-01-06T15:00:00Z,29.4412,-92.0613,10.0,8.99,86.0,,'11111222,11111222,99999999' 
WAVCIS,ioos:station:WAVCIS:CSI03:3,2016-01-06T16:00:00Z,29.4412,-92.0613,10.0,8.32,93.0,,'11111222,11111222,99999999' 
WAVCIS,ioos:station:WAVCIS:CSI03:3,2016-01-06T17:00:00Z,29.4412,-92.0613,10.0,6.772,99.0,,'11111222,11111222,99999999' 
WAVCIS,ioos:station:WAVCIS:CSI03:3,2016-01-06T18:00:00Z,29.4412,-92.0613,10.0,9.87,104.0,,'11111222,11111222,99999999' 
WAVCIS,ioos:station:WAVCIS:CSI03:3,2016-01-06T19:00:00Z,29.4412,-92.0613,10.0,8.43,101.0,,'11111222,11111222,99999999' 
WAVCIS,ioos:station:WAVCIS:CSI03:3,2016-01-06T20:00:00Z,29.4412,-92.0613,10.0,8.5,104.0,,'11111222,11111222,99999999' 
WAVCIS,ioos:station:WAVCIS:CSI03:3,2016-01-06T21:00:00Z,29.4412,-92.0613,10.0,9.09,112.0,,'11111222,11111222,99999999' 
WAVCIS,ioos:station:WAVCIS:CSI03:3,2016-01-06T22:00:00Z,29.4412,-92.0613,10.0,8.97,107.0,,'11111222,11111222,99999999' 
WAVCIS,ioos:station:WAVCIS:CSI03:3,2016-01-06T23:00:00Z,29.4412,-92.0613,10.0,10.34,101.0,,'11111222,11111222,99999999' 
WAVCIS,ioos:station:WAVCIS:CSI03:3,2016-01-07T00:00:00Z,29.4412,-92.0613,10.0,9.67,98.0,,'11111222,11111222,99999999' 
WAVCIS,ioos:station:WAVCIS:CSI03:3,2016-01-07T01:00:00Z,29.4412,-92.0613,10.0,10.77,96.0,,'11111222,11111222,99999999' 
WAVCIS,ioos:station:WAVCIS:CSI03:3,2016-01-07T02:00:00Z,29.4412,-92.0613,10.0,10.91,92.0,,'11111222,11111222,99999999' 
WAVCIS,ioos:station:WAVCIS:CSI03:3,2016-01-07T03:00:00Z,29.4412,-92.0613,10.0,10.57,91.0,,'11111222,11111222,99999999' 
WAVCIS,ioos:station:WAVCIS:CSI03:3,2016-01-07T04:00:00Z,29.4412,-92.0613,10.0,11.35,94.0,,'11111222,11111222,99999999' 
WAVCIS,ioos:station:WAVCIS:CSI03:3,2016-01-07T05:00:00Z,29.4412,-92.0613,10.0,10.36,95.0,,'11111222,11111222,99999999' 
WAVCIS,ioos:station:WAVCIS:CSI03:3,2016-01-07T06:00:00Z,29.4412,-92.0613,10.0,9.89,98.0,,'11111222,11111222,99999999' 
WAVCIS,ioos:station:WAVCIS:CSI03:3,2016-01-07T07:00:00Z,29.4412,-92.0613,10.0,10.43,93.0,,'11111222,11111222,99999999' 
WAVCIS,ioos:station:WAVCIS:CSI03:3,2016-01-07T08:00:00Z,29.4412,-92.0613,10.0,10.67,90.0,,'11111222,11111222,99999999' 
WAVCIS,ioos:station:WAVCIS:CSI03:3,2016-01-07T09:00:00Z,29.4412,-92.0613,10.0,8.0,91.0,,'11111222,11111222,99999999' 
WAVCIS,ioos:station:WAVCIS:CSI03:3,2016-01-07T10:00:00Z,29.4412,-92.0613,10.0,7.99,68.0,,'11111222,11111222,99999999' 
WAVCIS,ioos:station:WAVCIS:CSI03:3,2016-01-07T11:00:00Z,29.4412,-92.0613,10.0,6.007,58.0,,'11111222,11111222,99999999' 
WAVCIS,ioos:station:WAVCIS:CSI03:3,2016-01-07T12:00:00Z,29.4412,-92.0613,10.0,7.08,82.0,,'11111222,11111222,99999999' 
WAVCIS,ioos:station:WAVCIS:CSI03:3,2016-01-07T13:00:00Z,29.4412,-92.0613,10.0,11.02,74.0,,'11111222,11111222,99999999' 
WAVCIS,ioos:station:WAVCIS:CSI03:3,2016-01-07T14:00:00Z,29.4412,-92.0613,10.0,9.25,85.0,,'11111222,11111222,99999999' 
WAVCIS,ioos:station:WAVCIS:CSI03:3,2016-01-07T15:00:00Z,29.4412,-92.0613,10.0,9.22,93.0,,'11111222,11111222,99999999' 
WAVCIS,ioos:station:WAVCIS:CSI03:3,2016-01-07T16:00:00Z,29.4412,-92.0613,10.0,2.087,6.0,,'11111222,11111222,99999999' 
WAVCIS,ioos:station:WAVCIS:CSI03:3,2016-01-07T17:00:00Z,29.4412,-92.0613,10.0,5.715,104.0,,'11111222,11111222,99999999' 
WAVCIS,ioos:station:WAVCIS:CSI03:3,2016-01-07T18:00:00Z,29.4412,-92.0613,10.0,5.239,93.0,,'11111222,11111222,99999999' 
WAVCIS,ioos:station:WAVCIS:CSI03:3,2016-01-07T19:00:00Z,29.4412,-92.0613,10.0,4.651,113.0,,'11111222,11111222,99999999' 
WAVCIS,ioos:station:WAVCIS:CSI03:3,2016-01-07T20:00:00Z,29.4412,-92.0613,10.0,4.313,117.0,,'11111222,11111222,99999999' 
WAVCIS,ioos:station:WAVCIS:CSI03:3,2016-01-07T21:00:00Z,29.4412,-92.0613,10.0,2.981,122.0,,'11111222,11111222,99999999' 
WAVCIS,ioos:station:WAVCIS:CSI03:3,2016-01-07T22:00:00Z,29.4412,-92.0613,10.0,3.099,107.0,,'11111222,11111222,99999999' 
WAVCIS,ioos:station:WAVCIS:CSI03:3,2016-01-07T23:00:00Z,29.4412,-92.0613,10.0,3.862,106.0,,'11111222,11111222,99999999' 
WAVCIS,ioos:station:WAVCIS:CSI03:3,2016-01-08T00:00:00Z,29.4412,-92.0613,10.0,2.693,104.0,,'11111222,11111222,99999999' 
WAVCIS,ioos:station:WAVCIS:CSI03:3,2016-01-08T01:00:00Z,29.4412,-92.0613,10.0,4.103,102.0,,'11111222,11111222,99999999' 
WAVCIS,ioos:station:WAVCIS:CSI03:3,2016-01-08T02:00:00Z,29.4412,-92.0613,10.0,4.685,107.0,,'11111222,11111222,99999999' 
WAVCIS,ioos:station:WAVCIS:CSI03:3,2016-01-08T03:00:00Z,29.4412,-92.0613,10.0,4.163,104.0,,'11111222,11111222,99999999' 
WAVCIS,ioos:station:WAVCIS:CSI03:3,2016-01-08T04:00:00Z,29.4412,-92.0613,10.0,4.21,94.0,,'11111222,11111222,99999999' 
WAVCIS,ioos:station:WAVCIS:CSI03:3,2016-01-08T05:00:00Z,29.4412,-92.0613,10.0,3.756,99.0,,'11111222,11111222,99999999' 
WAVCIS,ioos:station:WAVCIS:CSI03:3,2016-01-08T06:00:00Z,29.4412,-92.0613,10.0,3.654,98.0,,'11111222,11111222,99999999' 
WAVCIS,ioos:station:WAVCIS:CSI03:3,2016-01-08T07:00:00Z,29.4412,-92.0613,10.0,2.67,104.0,,'11111222,11111222,99999999' 
WAVCIS,ioos:station:WAVCIS:CSI03:3,2016-01-08T08:00:00Z,29.4412,-92.0613,10.0,3.222,88.0,,'11111222,11111222,99999999' 
WAVCIS,ioos:station:WAVCIS:CSI03:3,2016-01-08T09:00:00Z,29.4412,-92.0613,10.0,3.528,59.0,,'11111222,11111222,99999999' 
WAVCIS,ioos:station:WAVCIS:CSI03:3,2016-01-08T10:00:00Z,29.4412,-92.0613,10.0,4.538,94.0,,'11111222,11111222,99999999' 
WAVCIS,ioos:station:WAVCIS:CSI03:3,2016-01-08T11:00:00Z,29.4412,-92.0613,10.0,5.723,119.0,,'11111222,11111222,99999999' 
WAVCIS,ioos:station:WAVCIS:CSI03:3,2016-01-08T12:00:00Z,29.4412,-92.0613,10.0,6.372,117.0,,'11111222,11111222,99999999' 
WAVCIS,ioos:station:WAVCIS:CSI03:3,2016-01-08T13:00:00Z,29.4412,-92.0613,10.0,6.312,116.0,,'11111222,11111222,99999999' 
WAVCIS,ioos:station:WAVCIS:CSI03:3,2016-01-08T14:00:00Z,29.4412,-92.0613,10.0,7.8,122.0,,'11111222,11111222,99999999' 
WAVCIS,ioos:station:WAVCIS:CSI03:3,2016-01-08T15:00:00Z,29.4412,-92.0613,10.0,7.72,115.0,,'11111222,11111222,99999999' 
WAVCIS,ioos:station:WAVCIS:CSI03:3,2016-01-08T16:00:00Z,29.4412,-92.0613,10.0,8.29,114.0,,'11111222,11111222,99999999' 
WAVCIS,ioos:station:WAVCIS:CSI03:3,2016-01-08T17:00:00Z,29.4412,-92.0613,10.0,8.42,117.0,,'11111222,11111222,99999999' 
WAVCIS,ioos:station:WAVCIS:CSI03:3,2016-01-08T18:00:00Z,29.4412,-92.0613,10.0,7.72,108.0,,'11111222,11111222,99999999' 
WAVCIS,ioos:station:WAVCIS:CSI03:3,2016-01-08T19:00:00Z,29.4412,-92.0613,10.0,9.32,113.0,,'11111222,11111222,99999999' 
WAVCIS,ioos:station:WAVCIS:CSI03:3,2016-01-08T20:00:00Z,29.4412,-92.0613,10.0,7.85,109.0,,'11111222,11111222,99999999' 
WAVCIS,ioos:station:WAVCIS:CSI03:3,2016-01-08T21:00:00Z,29.4412,-92.0613,10.0,6.239,108.0,,'11111222,11111222,99999999' 
WAVCIS,ioos:station:WAVCIS:CSI03:3,2016-01-08T22:00:00Z,29.4412,-92.0613,10.0,6.706,104.0,,'11111222,11111222,99999999' 
WAVCIS,ioos:station:WAVCIS:CSI03:3,2016-01-08T23:00:00Z,29.4412,-92.0613,10.0,7.03,103.0,,'11111222,11111222,99999999' 
WAVCIS,ioos:station:WAVCIS:CSI03:3,2016-01-09T00:00:00Z,29.4412,-92.0613,10.0,7.98,97.0,,'11111222,11111222,99999999' 
WAVCIS,ioos:station:WAVCIS:CSI03:3,2016-01-09T01:00:00Z,29.4412,-92.0613,10.0,8.87,107.0,,'11111222,11111222,99999999' 
WAVCIS,ioos:station:WAVCIS:CSI03:3,2016-01-09T02:00:00Z,29.4412,-92.0613,10.0,11.14,114.0,,'11111222,11111222,99999999' 
WAVCIS,ioos:station:WAVCIS:CSI03:3,2016-01-09T03:00:00Z,29.4412,-92.0613,10.0,10.23,111.0,,'11111222,11111222,99999999' 
WAVCIS,ioos:station:WAVCIS:CSI03:3,2016-01-09T04:00:00Z,29.4412,-92.0613,10.0,10.26,110.0,,'11111222,11111222,99999999' 
WAVCIS,ioos:station:WAVCIS:CSI03:3,2016-01-09T05:00:00Z,29.4412,-92.0613,10.0,9.46,123.0,,'11111222,11111222,99999999' 
WAVCIS,ioos:station:WAVCIS:CSI03:3,2016-01-09T06:00:00Z,29.4412,-92.0613,10.0,8.84,119.0,,'11111222,11111222,99999999' 